| time (UTC) | temp F | wind direction | speed knots | gust knots | rain 1hr in | rain 24hr in | rain mn in | humidity % | barometer mb |
| 20260508135504 | 69 | 53 | 1.7 | 7.0 | 0.00 | 1.58 | 0.00 | 83 | 1016.1 |
| 20260508135003 | 69 | 360 | 3.5 | 7.0 | 0.00 | 1.58 | 0.00 | 83 | 1015.9 |
| 20260508134517 | 69 | 73 | 3.5 | 7.0 | 0.00 | 1.58 | 0.00 | 83 | 1015.8 |
| 20260508134007 | 69 | 19 | 2.6 | 4.3 | 0.00 | 1.58 | 0.00 | 83 | 1015.7 |
| 20260508133503 | 68 | 60 | 2.6 | 5.2 | 0.00 | 1.58 | 0.00 | 84 | 1015.6 |
| 20260508133013 | 68 | 52 | 2.6 | 5.2 | 0.00 | 1.58 | 0.00 | 84 | 1015.9 |
| 20260508132505 | 68 | 127 | 3.5 | 5.2 | 0.00 | 1.58 | 0.00 | 84 | 1015.6 |
| 20260508132002 | 68 | 41 | 3.5 | 5.2 | 0.00 | 1.58 | 0.00 | 85 | 1015.4 |
| 20260508131512 | 68 | 85 | 2.6 | 8.7 | 0.00 | 1.58 | 0.00 | 85 | 1015.6 |
| 20260508131005 | 68 | 28 | 4.3 | 8.7 | 0.00 | 1.58 | 0.00 | 85 | 1015.5 |
| 20260508130505 | 68 | 111 | 3.5 | 7.8 | 0.00 | 1.58 | 0.00 | 86 | 1015.5 |
| 20260508130024 | 68 | 97 | 2.6 | 7.8 | 0.00 | 1.58 | 0.00 | 86 | 1015.6 |
| 20260508125507 | 68 | 75 | 4.3 | 7.8 | 0.00 | 1.58 | 0.00 | 86 | 1015.6 |
| 20260508125008 | 67 | 87 | 2.6 | 7.0 | 0.00 | 1.58 | 0.00 | 86 | 1015.7 |
| 20260508124517 | 67 | 75 | 1.7 | 7.0 | 0.00 | 1.58 | 0.00 | 87 | 1015.9 |
| 20260508124007 | 67 | 26 | 3.5 | 7.0 | 0.00 | 1.58 | 0.00 | 86 | 1015.8 |
| 20260508123504 | 67 | 71 | 3.5 | 5.2 | 0.00 | 1.58 | 0.00 | 87 | 1015.8 |
| 20260508123008 | 67 | 75 | 1.7 | 4.3 | 0.00 | 1.58 | 0.00 | 87 | 1016.1 |
| 20260508122503 | 67 | 24 | 1.7 | 3.5 | 0.00 | 1.58 | 0.00 | 87 | 1016.1 |
| 20260508122005 | 67 | 5 | 0.0 | 3.5 | 0.00 | 1.58 | 0.00 | 88 | 1016.1 |
| 20260508121512 | 67 | 14 | 0.9 | 4.3 | 0.00 | 1.58 | 0.00 | 88 | 1016.1 |
| 20260508121005 | 67 | 40 | 0.9 | 4.3 | 0.00 | 1.58 | 0.00 | 87 | 1016.2 |
| 20260508120503 | 67 | 90 | 0.9 | 3.5 | 0.00 | 1.58 | 0.00 | 88 | 1015.9 |
| 20260508120017 | 67 | 50 | 1.7 | 3.5 | 0.00 | 1.58 | 0.00 | 88 | 1015.8 |
| 20260508115506 | 67 | 360 | 1.7 | 3.5 | 0.00 | 1.58 | 0.00 | 87 | 1015.8 |
| 20260508115005 | 67 | 352 | 0.9 | 2.6 | 0.00 | 1.58 | 0.00 | 87 | 1015.9 |
| 20260508114517 | 67 | 61 | 0.9 | 4.3 | 0.00 | 1.58 | 0.00 | 87 | 1015.9 |
| 20260508114006 | 67 | 307 | 1.7 | 4.3 | 0.00 | 1.58 | 0.00 | 87 | 1015.9 |
| 20260508113507 | 67 | 352 | 2.6 | 4.3 | 0.00 | 1.58 | 0.00 | 87 | 1015.7 |
| 20260508113021 | 67 | 343 | 1.7 | 5.2 | 0.00 | 1.58 | 0.00 | 87 | 1015.4 |
| 20260508112508 | 67 | 23 | 2.6 | 5.2 | 0.00 | 1.58 | 0.00 | 88 | 1015.2 |
| 20260508112004 | 67 | 352 | 1.7 | 4.3 | 0.00 | 1.58 | 0.00 | 88 | 1015.1 |
| 20260508111512 | 67 | 19 | 0.9 | 5.2 | 0.00 | 1.58 | 0.00 | 88 | 1015.0 |
| 20260508111005 | 67 | 15 | 3.5 | 5.2 | 0.00 | 1.58 | 0.00 | 88 | 1014.7 |
| 20260508110504 | 67 | 44 | 0.9 | 3.5 | 0.00 | 1.58 | 0.00 | 88 | 1014.5 |
| 20260508110017 | 67 | 29 | 1.7 | 3.5 | 0.00 | 1.58 | 0.00 | 88 | 1014.6 |
| 20260508105507 | 67 | 5 | 0.9 | 2.6 | 0.00 | 1.58 | 0.00 | 88 | 1014.9 |
| 20260508105009 | 67 | 24 | 0.0 | 1.7 | 0.00 | 1.58 | 0.00 | 88 | 1014.6 |
| 20260508104523 | 67 | 38 | 0.9 | 2.6 | 0.00 | 1.58 | 0.00 | 88 | 1014.4 |
| 20260508104006 | 67 | 66 | 0.0 | 2.6 | 0.00 | 1.58 | 0.00 | 89 | 1014.2 |
| 20260508103507 | 67 | 40 | 0.0 | 2.6 | 0.00 | 1.58 | 0.00 | 88 | 1014.1 |
| 20260508103024 | 67 | 65 | 0.9 | 2.6 | 0.00 | 1.58 | 0.00 | 89 | 1014.0 |
| 20260508102511 | 67 | 69 | 0.9 | 4.3 | 0.00 | 1.58 | 0.00 | 89 | 1014.0 |
| 20260508102007 | 67 | 46 | 2.6 | 4.3 | 0.00 | 1.58 | 0.00 | 89 | 1014.2 |
| 20260508101521 | 67 | 57 | 0.0 | 2.6 | 0.00 | 1.58 | 0.00 | 89 | 1014.1 |
| 20260508101004 | 67 | 55 | 0.9 | 2.6 | 0.00 | 1.58 | 0.00 | 89 | 1014.2 |
| 20260508100504 | 67 | 32 | 1.7 | 2.6 | 0.00 | 1.58 | 0.00 | 89 | 1014.2 |
| 20260508100018 | 67 | 19 | 0.9 | 2.6 | 0.00 | 1.58 | 0.00 | 89 | 1014.2 |
| 20260508095505 | 67 | 27 | 0.0 | 3.5 | 0.00 | 1.58 | 0.00 | 89 | 1014.2 |
| 20260508095006 | 67 | 50 | 1.7 | 3.5 | 0.00 | 1.58 | 0.00 | 89 | 1013.8 |
| 20260508094521 | 67 | 43 | 1.7 | 3.5 | 0.00 | 1.58 | 0.00 | 89 | 1013.9 |
| 20260508094013 | 67 | 29 | 1.7 | 3.5 | 0.00 | 1.58 | 0.00 | 89 | 1013.9 |
| 20260508093507 | 68 | 9 | 2.6 | 3.5 | 0.00 | 1.58 | 0.00 | 89 | 1013.7 |
| 20260508093025 | 68 | 31 | 1.7 | 3.5 | 0.00 | 1.58 | 0.00 | 89 | 1013.5 |
| 20260508092507 | 68 | 63 | 1.7 | 2.6 | 0.00 | 1.58 | 0.00 | 89 | 1013.5 |
| 20260508092007 | 68 | 318 | 0.9 | 1.7 | 0.00 | 1.58 | 0.00 | 89 | 1013.7 |
| 20260508091527 | 68 | 40 | 0.9 | 1.7 | 0.00 | 1.58 | 0.00 | 89 | 1013.6 |
| 20260508091008 | 68 | 12 | 0.9 | 1.7 | 0.00 | 1.58 | 0.00 | 89 | 1013.7 |
| 20260508090510 | 68 | 360 | 0.9 | 1.7 | 0.00 | 1.58 | 0.00 | 89 | 1013.8 |
| 20260508090021 | 68 | 346 | 0.9 | 3.5 | 0.00 | 1.58 | 0.00 | 89 | 1013.7 |
| 20260508085504 | 68 | 35 | 0.0 | 3.5 | 0.00 | 1.58 | 0.00 | 89 | 1013.8 |
| 20260508085004 | 68 | 36 | 0.9 | 2.6 | 0.00 | 1.58 | 0.00 | 89 | 1013.7 |
| 20260508084520 | 68 | 360 | 0.9 | 3.5 | 0.00 | 1.58 | 0.00 | 89 | 1013.7 |
| 20260508084009 | 68 | 5 | 0.9 | 3.5 | 0.00 | 1.58 | 0.00 | 89 | 1013.7 |
| 20260508083507 | 68 | 5 | 0.9 | 3.5 | 0.00 | 1.58 | 0.00 | 89 | 1013.7 |
| 20260508083021 | 68 | 9 | 0.9 | 3.5 | 0.00 | 1.58 | 0.00 | 89 | 1013.6 |
| 20260508082507 | 68 | 31 | 1.7 | 3.5 | 0.00 | 1.58 | 0.00 | 90 | 1013.6 |
| 20260508082008 | 68 | 339 | 0.9 | 3.5 | 0.00 | 1.58 | 0.00 | 90 | 1013.7 |
| 20260508081529 | 68 | 9 | 0.0 | 1.7 | 0.00 | 1.58 | 0.00 | 91 | 1013.5 |
| 20260508081006 | 68 | 29 | 0.9 | 1.7 | 0.00 | 1.58 | 0.00 | 91 | 1013.6 |
| 20260508080515 | 68 | 360 | 0.0 | 0.0 | 0.00 | 1.58 | 0.00 | 91 | 1013.7 |
| 20260508080025 | 68 | 360 | 0.0 | 0.0 | 0.00 | 1.58 | 0.00 | 91 | 1013.8 |
| 20260508075508 | 68 | 360 | 0.0 | 0.0 | 0.00 | 1.58 | 0.00 | 91 | 1013.6 |
| 20260508075005 | 68 | 360 | 0.0 | 2.6 | 0.00 | 1.58 | 0.00 | 91 | 1013.4 |
| 20260508074515 | 69 | 360 | 0.0 | 2.6 | 0.00 | 1.58 | 0.00 | 91 | 1013.5 |
| 20260508074004 | 69 | 18 | 0.9 | 2.6 | 0.00 | 1.58 | 0.00 | 91 | 1013.6 |
| 20260508073506 | 69 | 350 | 0.0 | 2.6 | 0.00 | 1.58 | 0.00 | 91 | 1013.7 |
| 20260508073024 | 69 | 352 | 1.7 | 2.6 | 0.00 | 1.58 | 0.00 | 91 | 1013.9 |
| 20260508072507 | 69 | 328 | 0.9 | 2.6 | 0.00 | 1.58 | 0.00 | 91 | 1014.0 |
| 20260508072006 | 69 | 318 | 0.0 | 2.6 | 0.00 | 1.58 | 0.00 | 91 | 1013.9 |
| 20260508071529 | 69 | 323 | 0.9 | 2.6 | 0.00 | 1.58 | 0.00 | 91 | 1014.0 |
| 20260508071006 | 69 | 311 | 1.7 | 3.5 | 0.00 | 1.58 | 0.00 | 90 | 1013.9 |
| 20260508070504 | 69 | 15 | 0.0 | 3.5 | 0.00 | 1.58 | 0.00 | 90 | 1013.6 |
| 20260508070010 | 69 | 352 | 1.7 | 4.3 | 0.00 | 1.58 | 0.00 | 90 | 1013.6 |
| 20260508065504 | 69 | 5 | 2.6 | 7.0 | 0.00 | 1.58 | 0.00 | 90 | 1013.6 |
| 20260508065005 | 69 | 9 | 1.7 | 7.0 | 0.00 | 1.58 | 0.00 | 90 | 1013.6 |
| 20260508064514 | 69 | 342 | 2.6 | 4.3 | 0.00 | 1.58 | 0.00 | 90 | 1013.8 |
| 20260508064008 | 69 | 322 | 0.9 | 4.3 | 0.00 | 1.58 | 0.00 | 90 | 1013.9 |
| 20260508063506 | 69 | 350 | 0.9 | 3.5 | 0.00 | 1.58 | 0.00 | 90 | 1013.9 |
| 20260508063021 | 70 | 333 | 0.9 | 3.5 | 0.00 | 1.58 | 0.00 | 90 | 1014.0 |
| 20260508062509 | 70 | 348 | 2.6 | 4.3 | 0.00 | 1.58 | 0.00 | 90 | 1014.0 |
| 20260508062007 | 70 | 13 | 0.9 | 4.3 | 0.00 | 1.58 | 0.00 | 89 | 1014.0 |
| 20260508061527 | 70 | 26 | 0.9 | 3.5 | 0.00 | 1.58 | 0.00 | 90 | 1013.9 |
| 20260508061008 | 70 | 15 | 1.7 | 3.5 | 0.00 | 1.58 | 0.00 | 90 | 1013.9 |
| 20260508060509 | 70 | 37 | 1.7 | 3.5 | 0.00 | 1.58 | 0.00 | 90 | 1013.9 |
| 20260508060009 | 70 | 360 | 1.7 | 4.3 | 0.00 | 1.58 | 0.00 | 90 | 1014.0 |
| 20260508055503 | 70 | 331 | 1.7 | 4.3 | 0.00 | 1.58 | 0.00 | 90 | 1014.0 |
| 20260508055003 | 70 | 17 | 1.7 | 3.5 | 0.00 | 1.58 | 0.00 | 90 | 1014.0 |
| 20260508054520 | 70 | 344 | 1.7 | 2.6 | 0.00 | 1.58 | 0.00 | 91 | 1014.0 |
| 20260508054005 | 71 | 340 | 0.0 | 1.7 | 0.00 | 1.58 | 0.00 | 92 | 1014.1 |
| 20260508053506 | 71 | 307 | 0.0 | 1.7 | 0.00 | 1.58 | 0.00 | 92 | 1014.1 |
| 20260508053022 | 71 | 28 | 0.0 | 3.5 | 0.00 | 1.58 | 0.00 | 92 | 1014.1 |
| 20260508052512 | 71 | 330 | 1.7 | 3.5 | 0.00 | 1.58 | 0.00 | 92 | 1014.2 |
| 20260508052006 | 71 | 325 | 0.9 | 2.6 | 0.00 | 1.58 | 0.00 | 92 | 1014.2 |
| 20260508051530 | 71 | 340 | 0.0 | 2.6 | 0.00 | 1.58 | 0.00 | 92 | 1014.3 |
| 20260508051008 | 71 | 5 | 0.0 | 2.6 | 0.00 | 1.58 | 0.00 | 92 | 1014.3 |
| 20260508050513 | 71 | 30 | 0.9 | 3.5 | 0.00 | 1.58 | 0.00 | 92 | 1014.2 |
| 20260508050028 | 71 | 352 | 1.7 | 3.5 | 0.00 | 1.58 | 0.00 | 92 | 1014.3 |
| 20260508045508 | 71 | 331 | 0.9 | 3.5 | 0.00 | 1.58 | 1.58 | 92 | 1014.3 |
| 20260508045006 | 71 | 327 | 0.9 | 2.6 | 0.00 | 1.58 | 1.58 | 92 | 1014.2 |
| 20260508044511 | 71 | 5 | 0.9 | 2.6 | 0.00 | 1.58 | 1.58 | 92 | 1014.0 |
| 20260508044005 | 71 | 352 | 0.9 | 1.7 | 0.00 | 1.58 | 1.58 | 92 | 1014.2 |
| 20260508043508 | 71 | 308 | 0.0 | 3.5 | 0.00 | 1.58 | 1.58 | 92 | 1014.4 |
| 20260508043019 | 71 | 27 | 0.9 | 3.5 | 0.00 | 1.58 | 1.58 | 92 | 1014.3 |
| 20260508042506 | 72 | 350 | 0.0 | 2.6 | 0.00 | 1.58 | 1.58 | 92 | 1014.2 |
| 20260508042007 | 72 | 38 | 0.9 | 4.3 | 0.00 | 1.58 | 1.58 | 93 | 1014.1 |
| 20260508041522 | 72 | 333 | 1.7 | 4.3 | 0.00 | 1.58 | 1.58 | 93 | 1014.3 |
| 20260508041008 | 72 | 323 | 0.9 | 5.2 | 0.00 | 1.58 | 1.58 | 94 | 1014.5 |
| 20260508040508 | 72 | 335 | 0.9 | 5.2 | 0.00 | 1.58 | 1.58 | 95 | 1014.4 |
| 20260508040025 | 72 | 11 | 1.7 | 5.2 | 0.00 | 1.58 | 1.58 | 95 | 1014.5 |
| 20260508035508 | 73 | 334 | 0.0 | 0.0 | 0.00 | 1.58 | 1.58 | 96 | 1014.4 |
| 20260508035007 | 73 | 296 | 0.0 | 0.0 | 0.00 | 1.58 | 1.58 | 96 | 1014.3 |
| 20260508034535 | 73 | 279 | 0.0 | 0.0 | 0.00 | 1.58 | 1.58 | 96 | 1014.5 |
| 20260508034003 | 73 | 309 | 0.0 | 0.0 | 0.00 | 1.58 | 1.58 | 96 | 1014.4 |
| 20260508033504 | 73 | 298 | 0.0 | 0.0 | 0.00 | 1.58 | 1.58 | 96 | 1014.4 |
| 20260508033017 | 73 | 297 | 0.0 | 0.0 | 0.00 | 1.58 | 1.58 | 96 | 1014.3 |
| 20260508032505 | 73 | 240 | 0.0 | 0.0 | 0.00 | 1.58 | 1.58 | 96 | 1014.2 |
| 20260508032003 | 73 | 240 | 0.0 | 0.0 | 0.00 | 1.58 | 1.58 | 96 | 1014.1 |
| 20260508031521 | 73 | 240 | 0.0 | 0.0 | 0.00 | 1.58 | 1.58 | 96 | 1014.0 |
| 20260508031007 | 73 | 240 | 0.0 | 0.0 | 0.00 | 1.58 | 1.58 | 95 | 1014.0 |
| 20260508030508 | 73 | 240 | 0.0 | 0.0 | 0.00 | 1.58 | 1.58 | 96 | 1013.8 |
| 20260508030025 | 73 | 240 | 0.0 | 0.0 | 0.00 | 1.58 | 1.58 | 95 | 1013.8 |
| 20260508025507 | 73 | 240 | 0.0 | 0.0 | 0.00 | 1.58 | 1.58 | 95 | 1013.7 |
| 20260508025008 | 73 | 240 | 0.0 | 0.0 | 0.00 | 1.58 | 1.58 | 95 | 1013.6 |
| 20260508024534 | 73 | 240 | 0.0 | 0.0 | 0.00 | 1.58 | 1.58 | 95 | 1013.5 |
| 20260508024006 | 73 | 240 | 0.0 | 0.0 | 0.00 | 1.58 | 1.58 | 96 | 1013.5 |
| 20260508023506 | 72 | 240 | 0.0 | 0.0 | 0.00 | 1.58 | 1.58 | 96 | 1013.6 |
| 20260508023015 | 72 | 240 | 0.0 | 0.0 | 0.00 | 1.58 | 1.58 | 95 | 1013.5 |
| 20260508022503 | 72 | 240 | 0.0 | 0.0 | 0.00 | 1.58 | 1.58 | 95 | 1013.6 |
| 20260508022004 | 72 | 240 | 0.0 | 0.0 | 0.00 | 1.58 | 1.58 | 95 | 1013.5 |
| 20260508021517 | 72 | 240 | 0.0 | 0.0 | 0.00 | 1.58 | 1.58 | 95 | 1013.4 |
| 20260508021007 | 72 | 240 | 0.0 | 0.0 | 0.00 | 1.58 | 1.58 | 94 | 1013.5 |
| 20260508020506 | 73 | 240 | 0.0 | 0.0 | 0.00 | 1.58 | 1.58 | 94 | 1013.4 |
| 20260508020023 | 73 | 240 | 0.0 | 0.0 | 0.00 | 1.58 | 1.58 | 94 | 1013.4 |
| 20260508015507 | 73 | 240 | 0.0 | 0.0 | 0.00 | 1.58 | 1.58 | 94 | 1013.4 |
| 20260508015010 | 73 | 240 | 0.0 | 0.0 | 0.00 | 1.58 | 1.58 | 94 | 1013.3 |
| 20260508014527 | 73 | 240 | 0.0 | 0.0 | 0.00 | 1.58 | 1.58 | 94 | 1013.4 |
| 20260508014008 | 73 | 240 | 0.0 | 0.0 | 0.00 | 1.58 | 1.58 | 94 | 1013.2 |
| 20260508013508 | 73 | 240 | 0.0 | 0.0 | 0.00 | 1.58 | 1.58 | 93 | 1013.2 |
| 20260508013028 | 73 | 240 | 0.0 | 0.0 | 0.00 | 1.58 | 1.58 | 93 | 1013.1 |
| 20260508012503 | 73 | 240 | 0.0 | 0.0 | 0.00 | 1.58 | 1.58 | 93 | 1012.9 |
| 20260508012003 | 74 | 240 | 0.0 | 0.0 | 0.00 | 1.58 | 1.58 | 93 | 1012.9 |
| 20260508011522 | 74 | 240 | 0.0 | 0.0 | 0.00 | 1.58 | 1.58 | 92 | 1012.9 |
| 20260508011010 | 74 | 240 | 0.0 | 0.0 | 0.00 | 1.58 | 1.58 | 92 | 1012.9 |
| 20260508010506 | 74 | 240 | 0.0 | 0.0 | 0.00 | 1.58 | 1.58 | 92 | 1012.9 |
| 20260508010022 | 74 | 240 | 0.0 | 0.0 | 0.00 | 1.58 | 1.58 | 92 | 1012.8 |
| 20260508005506 | 74 | 240 | 0.0 | 0.0 | 0.00 | 1.58 | 1.58 | 92 | 1012.8 |
| 20260508005007 | 74 | 240 | 0.0 | 0.0 | 0.00 | 1.58 | 1.58 | 92 | 1012.9 |
| 20260508004527 | 74 | 207 | 0.0 | 0.0 | 0.00 | 1.58 | 1.58 | 92 | 1012.8 |
| 20260508004009 | 74 | 206 | 0.0 | 0.0 | 0.00 | 1.58 | 1.58 | 92 | 1012.7 |
| 20260508003511 | 74 | 248 | 0.0 | 0.0 | 0.00 | 1.58 | 1.58 | 91 | 1012.8 |
| 20260508003027 | 75 | 248 | 0.0 | 0.0 | 0.00 | 1.58 | 1.58 | 91 | 1012.9 |
| 20260508002510 | 75 | 248 | 0.0 | 0.0 | 0.00 | 1.58 | 1.58 | 91 | 1012.9 |
| 20260508002011 | 75 | 248 | 0.0 | 0.9 | 0.00 | 1.58 | 1.58 | 91 | 1012.8 |
| 20260508001514 | 75 | 178 | 0.0 | 1.7 | 0.00 | 1.58 | 1.58 | 91 | 1012.7 |
| 20260508001003 | 75 | 261 | 0.0 | 1.7 | 0.00 | 1.58 | 1.58 | 90 | 1012.7 |
| 20260508000505 | 75 | 350 | 0.0 | 1.7 | 0.00 | 1.58 | 1.58 | 90 | 1012.8 |
| 20260508000021 | 75 | 265 | 0.0 | 1.7 | 0.00 | 1.58 | 1.58 | 90 | 1012.7 |
| 20260507235507 | 75 | 264 | 0.0 | 1.7 | 0.00 | 1.58 | 1.58 | 90 | 1012.6 |
| 20260507235007 | 75 | 263 | 0.0 | 1.7 | 0.00 | 1.58 | 1.58 | 90 | 1012.5 |
| 20260507234523 | 75 | 208 | 0.0 | 3.5 | 0.00 | 1.58 | 1.58 | 89 | 1012.5 |
| 20260507234008 | 75 | 252 | 0.0 | 3.5 | 0.00 | 1.58 | 1.58 | 89 | 1012.6 |
| 20260507233516 | 75 | 240 | 0.9 | 3.5 | 0.00 | 1.58 | 1.58 | 89 | 1012.7 |
| 20260507233032 | 76 | 282 | 0.9 | 3.5 | 0.00 | 1.58 | 1.58 | 89 | 1012.8 |
| 20260507232509 | 76 | 279 | 1.7 | 2.6 | 0.00 | 1.58 | 1.58 | 89 | 1012.8 |
| 20260507232009 | 76 | 292 | 0.0 | 3.5 | 0.00 | 1.58 | 1.58 | 89 | 1012.8 |
| 20260507231538 | 76 | 298 | 1.7 | 3.5 | 0.00 | 1.58 | 1.58 | 89 | 1012.9 |
| 20260507231011 | 76 | 288 | 0.9 | 3.5 | 0.00 | 1.58 | 1.58 | 88 | 1012.8 |
| 20260507230509 | 76 | 286 | 0.9 | 3.5 | 0.00 | 1.58 | 1.58 | 88 | 1012.8 |
| 20260507230019 | 76 | 293 | 0.9 | 2.6 | 0.00 | 1.58 | 1.58 | 88 | 1012.7 |
| 20260507225507 | 76 | 248 | 0.9 | 2.6 | 0.00 | 1.58 | 1.58 | 88 | 1012.7 |
| 20260507225007 | 76 | 264 | 0.9 | 2.6 | 0.00 | 1.58 | 1.58 | 88 | 1012.7 |
| 20260507224522 | 76 | 279 | 0.0 | 3.5 | 0.00 | 1.58 | 1.58 | 88 | 1012.8 |
| 20260507224007 | 76 | 258 | 0.9 | 5.2 | 0.00 | 1.58 | 1.58 | 87 | 1012.8 |
| 20260507223507 | 76 | 310 | 0.9 | 5.2 | 0.00 | 1.58 | 1.58 | 87 | 1012.8 |
| 20260507223026 | 77 | 255 | 1.7 | 5.2 | 0.00 | 1.58 | 1.58 | 87 | 1012.8 |
| 20260507222510 | 77 | 294 | 0.9 | 6.1 | 0.00 | 1.58 | 1.58 | 87 | 1012.8 |
| 20260507222009 | 77 | 312 | 0.0 | 6.1 | 0.00 | 1.58 | 1.58 | 88 | 1012.9 |
| 20260507221530 | 76 | 216 | 1.7 | 7.0 | 0.00 | 1.58 | 1.58 | 88 | 1012.8 |
| 20260507221013 | 76 | 252 | 1.7 | 7.8 | 0.00 | 1.58 | 1.58 | 87 | 1012.8 |
| 20260507220509 | 76 | 266 | 1.7 | 7.8 | 0.00 | 1.58 | 1.58 | 88 | 1012.7 |
| 20260507220029 | 76 | 309 | 3.5 | 7.8 | 0.00 | 1.58 | 1.58 | 87 | 1012.7 |
| 20260507215507 | 77 | 285 | 0.9 | 6.1 | 0.00 | 1.58 | 1.58 | 88 | 1012.7 |
| 20260507215008 | 77 | 331 | 0.9 | 3.5 | 0.00 | 1.58 | 1.58 | 89 | 1012.8 |
| 20260507214521 | 76 | 245 | 0.0 | 7.0 | 0.00 | 1.58 | 1.58 | 92 | 1012.9 |
| 20260507214004 | 76 | 268 | 1.7 | 7.8 | 0.00 | 1.58 | 1.58 | 91 | 1012.9 |
| 20260507213503 | 76 | 311 | 3.5 | 7.8 | 0.00 | 1.58 | 1.58 | 90 | 1012.8 |
| 20260507213004 | 76 | 286 | 2.6 | 7.0 | 0.00 | 1.58 | 1.58 | 91 | 1012.9 |
| 20260507212504 | 76 | 275 | 3.5 | 7.0 | 0.00 | 1.58 | 1.58 | 91 | 1012.8 |
| 20260507212004 | 76 | 277 | 0.9 | 3.5 | 0.00 | 1.58 | 1.58 | 92 | 1012.7 |
| 20260507211511 | 76 | 283 | 0.9 | 2.6 | 0.00 | 1.58 | 1.58 | 92 | 1012.8 |
| 20260507211006 | 76 | 302 | 0.9 | 3.5 | 0.00 | 1.58 | 1.58 | 91 | 1012.7 |
| 20260507210506 | 76 | 276 | 0.9 | 12.2 | 0.00 | 1.58 | 1.58 | 91 | 1012.8 |
| 20260507210013 | 76 | 272 | 3.5 | 12.2 | 0.00 | 1.58 | 1.58 | 90 | 1012.6 |
| 20260507205503 | 76 | 229 | 2.6 | 6.1 | 0.00 | 1.58 | 1.58 | 91 | 1012.7 |
| 20260507205006 | 76 | 269 | 1.7 | 6.1 | 0.00 | 1.58 | 1.58 | 92 | 1012.7 |
| 20260507204519 | 76 | 224 | 0.9 | 3.5 | 0.00 | 1.58 | 1.58 | 93 | 1012.7 |
| 20260507204007 | 76 | 314 | 0.0 | 3.5 | 0.00 | 1.58 | 1.58 | 94 | 1012.5 |
| 20260507203505 | 75 | 64 | 0.0 | 3.5 | 0.00 | 1.58 | 1.58 | 94 | 1012.6 |
| 20260507203002 | 75 | 236 | 0.0 | 0.0 | 0.00 | 1.58 | 1.58 | 94 | 1012.9 |
| 20260507202502 | 75 | 223 | 0.0 | 0.0 | 0.00 | 1.58 | 1.58 | 94 | 1012.8 |
| 20260507202002 | 75 | 223 | 0.0 | 0.0 | 0.00 | 1.58 | 1.58 | 94 | 1012.9 |
| 20260507201507 | 75 | 223 | 0.0 | 0.0 | 0.00 | 1.58 | 1.58 | 94 | 1012.9 |
| 20260507201002 | 75 | 173 | 0.0 | 0.0 | 0.00 | 1.58 | 1.58 | 94 | 1012.7 |
| 20260507200503 | 74 | 238 | 0.0 | 0.0 | 0.00 | 1.58 | 1.58 | 94 | 1012.7 |
| 20260507200012 | 74 | 182 | 0.0 | 0.0 | 0.00 | 1.58 | 1.58 | 94 | 1013.0 |
| 20260507195504 | 74 | 341 | 0.0 | 0.0 | 0.00 | 1.58 | 1.58 | 94 | 1013.0 |
| 20260507195006 | 74 | 341 | 0.0 | 0.0 | 0.00 | 1.58 | 1.58 | 94 | 1013.0 |
| 20260507194518 | 74 | 341 | 0.0 | 0.0 | 0.00 | 1.58 | 1.58 | 94 | 1013.3 |
| 20260507194006 | 74 | 341 | 0.0 | 3.5 | 0.01 | 1.58 | 1.58 | 94 | 1013.3 |
| 20260507193506 | 74 | 314 | 0.9 | 3.5 | 0.01 | 1.58 | 1.58 | 94 | 1013.4 |
| 20260507193024 | 74 | 344 | 1.7 | 3.5 | 0.01 | 1.58 | 1.58 | 94 | 1013.5 |
| 20260507192502 | 74 | 331 | 0.0 | 1.7 | 0.01 | 1.58 | 1.58 | 93 | 1013.4 |
| 20260507192007 | 74 | 326 | 0.0 | 1.7 | 0.01 | 1.58 | 1.58 | 94 | 1013.1 |
| 20260507191506 | 74 | 314 | 0.9 | 2.6 | 0.01 | 1.58 | 1.58 | 94 | 1013.2 |
| 20260507191001 | 73 | 243 | 0.0 | 2.6 | 0.01 | 1.58 | 1.58 | 94 | 1013.1 |
| 20260507190505 | 73 | 277 | 0.0 | 1.7 | 0.01 | 1.58 | 1.58 | 94 | 1013.3 |
| 20260507190012 | 73 | 332 | 0.0 | 1.7 | 0.01 | 1.58 | 1.58 | 94 | 1013.2 |
| 20260507185502 | 73 | 332 | 0.9 | 2.6 | 0.01 | 1.58 | 1.58 | 94 | 1013.3 |
| 20260507185010 | 73 | 260 | 0.0 | 2.6 | 0.01 | 1.58 | 1.58 | 94 | 1013.4 |
| 20260507184515 | 73 | 300 | 0.0 | 2.6 | 0.01 | 1.58 | 1.58 | 93 | 1013.7 |
| 20260507184003 | 73 | 282 | 0.0 | 1.7 | 0.00 | 1.57 | 1.57 | 94 | 1013.5 |
| 20260507183508 | 73 | 261 | 0.9 | 3.5 | 0.00 | 1.57 | 1.57 | 94 | 1013.8 |
| 20260507183034 | 73 | 243 | 0.9 | 3.5 | 0.00 | 1.57 | 1.57 | 94 | 1013.9 |
| 20260507182507 | 73 | 184 | 0.0 | 2.6 | 0.00 | 1.57 | 1.57 | 94 | 1014.0 |
| 20260507182008 | 73 | 290 | 0.0 | 1.7 | 0.00 | 1.57 | 1.57 | 94 | 1014.2 |
| 20260507181505 | 73 | 291 | 0.0 | 4.3 | 0.00 | 1.57 | 1.57 | 95 | 1014.0 |
| 20260507181004 | 72 | 257 | 0.0 | 4.3 | 0.00 | 1.57 | 1.57 | 94 | 1014.3 |
| 20260507180503 | 72 | 173 | 0.9 | 4.3 | 0.00 | 1.57 | 1.57 | 95 | 1014.3 |
| 20260507180008 | 72 | 236 | 1.7 | 6.1 | 0.00 | 1.57 | 1.57 | 96 | 1014.5 |
| 20260507175505 | 72 | 191 | 0.9 | 7.0 | 0.00 | 1.57 | 1.57 | 95 | 1014.2 |
| 20260507175003 | 71 | 155 | 4.3 | 7.0 | 0.01 | 1.57 | 1.57 | 95 | 1014.0 |
| 20260507174516 | 71 | 184 | 1.7 | 3.5 | 0.02 | 1.57 | 1.57 | 96 | 1014.4 |
| 20260507174006 | 71 | 173 | 1.7 | 6.1 | 0.04 | 1.57 | 1.57 | 95 | 1014.4 |
| 20260507173513 | 70 | 198 | 1.7 | 6.1 | 0.07 | 1.57 | 1.57 | 96 | 1014.4 |
| 20260507173017 | 70 | 169 | 1.7 | 6.1 | 0.08 | 1.57 | 1.57 | 96 | 1014.5 |
| 20260507172507 | 70 | 231 | 1.7 | 4.3 | 0.08 | 1.57 | 1.57 | 96 | 1014.6 |
| 20260507172007 | 70 | 201 | 2.6 | 4.3 | 0.10 | 1.57 | 1.57 | 95 | 1014.3 |
| 20260507171525 | 70 | 202 | 1.7 | 4.3 | 0.24 | 1.57 | 1.57 | 97 | 1014.7 |
| 20260507171008 | 70 | 199 | 0.9 | 3.5 | 0.36 | 1.57 | 1.57 | 97 | 1014.6 |
| 20260507170502 | 69 | 198 | 0.9 | 7.0 | 0.48 | 1.57 | 1.57 | 96 | 1014.7 |
| 20260507170010 | 68 | 230 | 3.5 | 6.1 | 0.52 | 1.57 | 1.57 | 95 | 1014.7 |
| 20260507165502 | 68 | 197 | 0.9 | 2.6 | 0.54 | 1.57 | 1.57 | 95 | 1014.5 |
| 20260507165003 | 68 | 219 | 0.9 | 5.2 | 0.54 | 1.56 | 1.56 | 95 | 1014.2 |
| 20260507164514 | 68 | 245 | 0.0 | 7.8 | 1.01 | 1.55 | 1.55 | 95 | 1014.6 |
| 20260507164003 | 68 | 301 | 3.5 | 7.8 | 1.53 | 1.53 | 1.53 | 94 | 1014.7 |
| 20260507163502 | 68 | 96 | 0.0 | 6.1 | 1.50 | 1.50 | 1.50 | 94 | 1015.5 |
| 20260507163018 | 68 | 213 | 0.9 | 14.8 | 1.49 | 1.49 | 1.49 | 94 | 1015.7 |
| 20260507162507 | 69 | 227 | 5.2 | 19.1 | 1.49 | 1.49 | 1.49 | 93 | 1015.4 |
| 20260507162007 | 70 | 194 | 11.3 | 19.1 | 1.47 | 1.47 | 1.47 | 94 | 1015.0 |
| 20260507161538 | 70 | 219 | 1.7 | 7.0 | 1.33 | 1.33 | 1.33 | 94 | 1015.5 |
| 20260507161008 | 71 | 182 | 1.7 | 7.0 | 1.21 | 1.21 | 1.21 | 94 | 1015.8 |
| 20260507160510 | 71 | 180 | 0.0 | 5.2 | 1.09 | 1.09 | 1.09 | 94 | 1015.4 |
| 20260507160034 | 71 | 210 | 0.0 | 10.4 | 1.04 | 1.04 | 1.04 | 93 | 1014.9 |
| 20260507155503 | 71 | 217 | 2.6 | 16.5 | 1.03 | 1.03 | 1.03 | 93 | 1014.9 |
| 20260507155007 | 72 | 162 | 7.0 | 20.0 | 1.02 | 1.02 | 1.02 | 92 | 1014.6 |
| 20260507154004 | 74 | 302 | 3.5 | 6.1 | 0.00 | 0.00 | 0.00 | 91 | 1016.0 |
| 20260507153504 | 74 | 5 | 0.9 | 2.6 | 0.00 | 0.00 | 0.00 | 90 | 1014.9 |
| 20260507153015 | 74 | 40 | 1.7 | 3.5 | 0.00 | 0.00 | 0.00 | 90 | 1014.4 |
| 20260507152507 | 74 | 85 | 1.7 | 3.5 | 0.00 | 0.00 | 0.00 | 90 | 1014.1 |
| 20260507152008 | 74 | 94 | 0.9 | 2.6 | 0.00 | 0.00 | 0.00 | 89 | 1014.1 |
| 20260507151534 | 74 | 165 | 0.0 | 3.5 | 0.00 | 0.00 | 0.00 | 89 | 1014.4 |
| 20260507151006 | 74 | 80 | 1.7 | 3.5 | 0.00 | 0.00 | 0.00 | 88 | 1014.1 |
| 20260507150507 | 74 | 88 | 1.7 | 3.5 | 0.00 | 0.00 | 0.00 | 88 | 1013.9 |
| 20260507150024 | 74 | 41 | 1.7 | 4.3 | 0.00 | 0.00 | 0.00 | 87 | 1014.2 |
| 20260507145507 | 74 | 38 | 1.7 | 8.7 | 0.00 | 0.00 | 0.00 | 86 | 1014.4 |
| 20260507145010 | 75 | 69 | 2.6 | 8.7 | 0.00 | 0.00 | 0.00 | 84 | 1014.5 |
| 20260507144510 | 76 | 310 | 4.3 | 8.7 | 0.00 | 0.00 | 0.00 | 86 | 1014.6 |
| 20260507144008 | 76 | 317 | 2.6 | 6.1 | 0.00 | 0.00 | 0.00 | 88 | 1014.6 |
| 20260507143505 | 76 | 72 | 1.7 | 5.2 | 0.00 | 0.00 | 0.00 | 88 | 1014.5 |
| 20260507143015 | 76 | 222 | 0.9 | 4.3 | 0.00 | 0.00 | 0.00 | 88 | 1014.3 |
| 20260507142504 | 77 | 138 | 0.9 | 3.5 | 0.00 | 0.00 | 0.00 | 88 | 1014.2 |
| 20260507142008 | 77 | 252 | 0.9 | 3.5 | 0.00 | 0.00 | 0.00 | 88 | 1014.2 |
| 20260507141521 | 77 | 184 | 0.0 | 4.3 | 0.00 | 0.00 | 0.00 | 88 | 1014.3 |
| 20260507141012 | 77 | 104 | 0.9 | 5.2 | 0.00 | 0.00 | 0.00 | 88 | 1014.1 |
| 20260507140509 | 77 | 179 | 2.6 | 5.2 | 0.00 | 0.00 | 0.00 | 88 | 1013.9 |
| 20260507140026 | 77 | 188 | 2.6 | 6.1 | 0.00 | 0.00 | 0.00 | 88 | 1014.0 |